When you browse on this site, cookies collect data to enhance your experience and personalize the content and advertising you see.
Visit our Privacy Policy to learn more. By continuing to use the site, you agree to this use of cookies and data.
  • In Hungary
  • List of Countries
  • For 7 days
  • Water Temperature
  • Weather Map
  • News
  • Weather Widgets
  • user-avatar
    Login

    Hourly Weather Serednya

    Today, 18 August, Sunday

    Time Temperature Precipitation Wind Pressure Humidity
    00:00 +15°C° 0 mm 1 mps 739 mmHg 81%
    01:00 +15°C° 0 mm 1 mps 739 mmHg 82%
    02:00 +14°C° 0 mm 1 mps 739 mmHg 82%
    03:00 +14°C° 0 mm 1 mps 738 mmHg 83%
    04:00 +14°C° 0 mm 1 mps 738 mmHg 83%
    05:00 +14°C° 0 mm 1 mps 738 mmHg 84%
    06:00 +15°C° 0 mm 1 mps 739 mmHg 79%
    07:00 +18°C° 0 mm 1 mps 739 mmHg 73%
    08:00 +20°C° 0 mm 1 mps 739 mmHg 67%
    09:00 +21°C° 0 mm 2 mps 739 mmHg 61%
    10:00 +24°C° 0 mm 2 mps 739 mmHg 55%
    11:00 +26°C° 0 mm 2 mps 739 mmHg 49%
    12:00 +27°C° 0 mm 3 mps 739 mmHg 48%
    13:00 +27°C° 0 mm 3 mps 739 mmHg 46%
    14:00 +28°C° 0 mm 4 mps 739 mmHg 45%
    15:00 +28°C° 0 mm 4 mps 739 mmHg 48%
    16:00 +27°C° 0 mm 4 mps 739 mmHg 52%
    17:00 +26°C° 0 mm 4 mps 739 mmHg 55%
    18:00 +25°C° 0 mm 3 mps 739 mmHg 60%
    19:00 +23°C° 0 mm 2 mps 739 mmHg 65%
    20:00 +20°C° 0 mm 2 mps 739 mmHg 70%
    21:00 +19°C° 0 mm 2 mps 739 mmHg 71%
    22:00 +18°C° 0 mm 2 mps 739 mmHg 73%
    23:00 +18°C° 0 mm 2 mps 739 mmHg 74%

    Tomorrow, 19 August, Monday

    Time Temperature Precipitation Wind Pressure Humidity
    00:00 +17°C° 0 mm 2 mps 740 mmHg 75%
    01:00 +17°C° 0 mm 2 mps 740 mmHg 75%
    02:00 +17°C° 0 mm 2 mps 740 mmHg 76%
    03:00 +17°C° 0 mm 2 mps 740 mmHg 75%
    04:00 +18°C° 0 mm 1 mps 740 mmHg 75%
    05:00 +16°C° 0 mm 1 mps 740 mmHg 75%
    06:00 +19°C° 0 mm 1 mps 740 mmHg 71%
    07:00 +21°C° 0 mm 1 mps 740 mmHg 68%
    08:00 +22°C° 0 mm 1 mps 740 mmHg 64%
    09:00 +24°C° 0 mm 1 mps 741 mmHg 60%
    10:00 +26°C° 0 mm 2 mps 741 mmHg 55%
    11:00 +28°C° 0 mm 2 mps 741 mmHg 51%
    12:00 +29°C° 0 mm 2 mps 741 mmHg 49%
    13:00 +30°C° 0 mm 2 mps 741 mmHg 48%
    14:00 +31°C° 0 mm 3 mps 741 mmHg 46%
    15:00 +31°C° 0 mm 2 mps 741 mmHg 48%
    16:00 +31°C° 0 mm 2 mps 741 mmHg 50%
    17:00 +30°C° 0 mm 2 mps 741 mmHg 52%
    18:00 +28°C° 0 mm 2 mps 741 mmHg 57%
    19:00 +26°C° 0 mm 2 mps 741 mmHg 63%
    20:00 +24°C° 0 mm 2 mps 741 mmHg 68%
    21:00 +23°C° 0 mm 2 mps 741 mmHg 69%
    22:00 +21°C° 0 mm 2 mps 741 mmHg 70%
    23:00 +20°C° 0 mm 2 mps 741 mmHg 71%

    Day after tomorrow, 20 August, Tuesday

    Time Temperature Precipitation Wind Pressure Humidity
    00:00 +21°C° 0 mm 1 mps 741 mmHg 74%
    01:00 +20°C° 0 mm 1 mps 741 mmHg 76%
    02:00 +20°C° 0 mm 1 mps 742 mmHg 78%
    03:00 +19°C° 0 mm 1 mps 742 mmHg 81%
    04:00 +19°C° 0 mm 1 mps 742 mmHg 84%
    05:00 +19°C° 0 mm 1 mps 742 mmHg 87%
    06:00 +19°C° 0 mm 2 mps 742 mmHg 86%
    07:00 +20°C° 0 mm 2 mps 743 mmHg 84%
    08:00 +21°C° 0 mm 2 mps 743 mmHg 82%
    09:00 +24°C° 0 mm 2 mps 743 mmHg 78%
    10:00 +25°C° 0 mm 2 mps 743 mmHg 73%
    11:00 +27°C° 0 mm 2 mps 743 mmHg 68%
    12:00 +28°C° 0 mm 1 mps 743 mmHg 63%
    13:00 +29°C° 0 mm 1 mps 743 mmHg 58%
    14:00 +31°C° 0 mm 1 mps 743 mmHg 54%
    15:00 +31°C° 0 mm 1 mps 743 mmHg 53%
    16:00 +30°C° 0 mm 1 mps 743 mmHg 53%
    17:00 +30°C° 0 mm 1 mps 742 mmHg 52%
    18:00 +28°C° 0 mm 2 mps 742 mmHg 58%
    19:00 +26°C° 0 mm 2 mps 743 mmHg 63%
    20:00 +24°C° 0 mm 2 mps 743 mmHg 68%
    21:00 +24°C° 0 mm 2 mps 743 mmHg 68%
    22:00 +23°C° 0 mm 2 mps 743 mmHg 68%
    23:00 +21°C° 0 mm 2 mps 743 mmHg 69%

    21 August, Wednesday

    Time Temperature Precipitation Wind Pressure Humidity
    00:00 +21°C° 0 mm 2 mps 743 mmHg 69%
    01:00 +20°C° 0 mm 2 mps 743 mmHg 69%
    02:00 +20°C° 0 mm 2 mps 742 mmHg 69%
    03:00 +20°C° 0 mm 2 mps 742 mmHg 69%
    04:00 +19°C° 0 mm 2 mps 742 mmHg 69%
    05:00 +19°C° 0 mm 2 mps 742 mmHg 69%
    06:00 +20°C° 0 mm 2 mps 742 mmHg 67%
    07:00 +21°C° 0 mm 2 mps 742 mmHg 64%
    08:00 +24°C° 0 mm 2 mps 742 mmHg 62%
    09:00 +26°C° 0 mm 2 mps 742 mmHg 57%
    10:00 +28°C° 0 mm 2 mps 742 mmHg 52%
    11:00 +30°C° 0 mm 3 mps 742 mmHg 47%
    12:00 +31°C° 0 mm 2 mps 742 mmHg 44%
    13:00 +32°C° 0 mm 2 mps 742 mmHg 41%
    14:00 +34°C° 0 mm 2 mps 742 mmHg 38%
    15:00 +32°C° 0.1 mm 2 mps 742 mmHg 42%
    16:00 +32°C° 0.1 mm 2 mps 742 mmHg 46%
    17:00 +31°C° 0.1 mm 2 mps 742 mmHg 49%
    18:00 +29°C° 0.3 mm 3 mps 742 mmHg 62%
    19:00 +26°C° 0.3 mm 3 mps 742 mmHg 74%
    20:00 +22°C° 0.3 mm 4 mps 742 mmHg 87%
    21:00 +22°C° 0.2 mm 4 mps 743 mmHg 90%
    22:00 +21°C° 0.2 mm 4 mps 743 mmHg 93%
    23:00 +21°C° 0.2 mm 4 mps 743 mmHg 96%

    22 August, Thursday

    Time Temperature Precipitation Wind Pressure Humidity
    00:00 +20°C° 0.2 mm 4 mps 743 mmHg 96%
    01:00 +20°C° 0.2 mm 3 mps 743 mmHg 95%
    02:00 +20°C° 0.2 mm 3 mps 744 mmHg 95%
    03:00 +19°C° 0 mm 3 mps 743 mmHg 95%
    04:00 +19°C° 0 mm 3 mps 743 mmHg 95%
    05:00 +19°C° 0 mm 3 mps 743 mmHg 96%
    06:00 +19°C° 0 mm 3 mps 743 mmHg 95%
    07:00 +18°C° 0 mm 3 mps 744 mmHg 94%
    08:00 +18°C° 0 mm 3 mps 744 mmHg 94%
    09:00 +18°C° 0 mm 3 mps 744 mmHg 92%
    10:00 +19°C° 0 mm 2 mps 744 mmHg 91%
    11:00 +19°C° 0 mm 2 mps 744 mmHg 90%
    12:00 +19°C° 0 mm 2 mps 744 mmHg 88%
    13:00 +20°C° 0 mm 2 mps 744 mmHg 85%
    14:00 +20°C° 0 mm 2 mps 744 mmHg 83%
    15:00 +20°C° 0 mm 3 mps 744 mmHg 83%
    16:00 +20°C° 0 mm 3 mps 744 mmHg 82%
    17:00 +20°C° 0 mm 3 mps 744 mmHg 82%
    18:00 +20°C° 0 mm 3 mps 744 mmHg 83%
    19:00 +19°C° 0 mm 2 mps 744 mmHg 84%
    20:00 +19°C° 0 mm 2 mps 744 mmHg 85%
    21:00 +19°C° 0 mm 2 mps 744 mmHg 86%
    22:00 +18°C° 0 mm 2 mps 744 mmHg 87%
    23:00 +19°C° 0 mm 1 mps 744 mmHg 87%

    23 August, Friday

    Time Temperature Precipitation Wind Pressure Humidity
    00:00 +19°C° 0 mm 1 mps 744 mmHg 88%
    01:00 +19°C° 0 mm 1 mps 744 mmHg 88%
    02:00 +18°C° 0 mm 2 mps 744 mmHg 88%
    03:00 +18°C° 0 mm 2 mps 744 mmHg 88%
    04:00 +18°C° 0 mm 2 mps 744 mmHg 88%
    05:00 +17°C° 0 mm 2 mps 744 mmHg 88%
    06:00 +18°C° 0 mm 2 mps 744 mmHg 88%
    07:00 +18°C° 0 mm 2 mps 745 mmHg 87%
    08:00 +18°C° 0 mm 2 mps 745 mmHg 86%
    09:00 +18°C° 0 mm 2 mps 745 mmHg 85%
    10:00 +19°C° 0 mm 2 mps 745 mmHg 83%
    11:00 +19°C° 0 mm 2 mps 745 mmHg 82%
    12:00 +20°C° 0.1 mm 2 mps 745 mmHg 78%
    13:00 +21°C° 0.1 mm 2 mps 745 mmHg 74%
    14:00 +23°C° 0.1 mm 2 mps 745 mmHg 70%
    15:00 +23°C° 0.1 mm 2 mps 745 mmHg 70%
    16:00 +23°C° 0.1 mm 2 mps 745 mmHg 70%
    17:00 +23°C° 0.1 mm 2 mps 745 mmHg 70%
    18:00 +21°C° 0 mm 2 mps 745 mmHg 74%
    19:00 +20°C° 0 mm 2 mps 745 mmHg 77%
    20:00 +19°C° 0 mm 2 mps 746 mmHg 81%
    21:00 +18°C° 0 mm 2 mps 746 mmHg 81%
    22:00 +18°C° 0 mm 2 mps 746 mmHg 81%
    23:00 +18°C° 0 mm 3 mps 746 mmHg 81%
    Show more